Tracking 33197 objects as of 18-Feb-2026
HD Live streaming from Space Station
objects crossing your sky now

COSMOS 1862

Track COSMOS 1862 now!
10-day predictions
COSMOS 1862 is classified as:


NORAD ID: 18152
Int'l Code: 1987-055A
Perigee: 474.9 km
Apogee: 490.2 km
Inclination: 82.5 °
Period: 94.1 minutes
Semi major axis: 6853 km
RCS: 8.6433 m2 (large)
Launch date: July 1, 1987
Source: Commonwealth of Independent States (former USSR) (CIS)
Launch site: PLESETSK MISSILE AND SPACE COMPLEX (PKMTR)
Your satellite tracking list
Your tracking list is empty




NASA's NSSDC Master Catalog

Two Line Element Set (TLE):
1 18152U 87055A   26049.12960047  .00006912  00000-0  23552-3 0  9990
2 18152  82.4826  67.2373 0011219  86.2990 273.9533 15.30136673 86848
Source of the keplerian elements: AFSPC